Volver al catálogo

DELTA 1 R/B

ActivoHEO
NORAD 4354·ROCKET BODY·🇺🇸 United States

Lanzado Mar 20, 1970 desde Cape Canaveral Space Force Station

Loading…

Próximos Pases (próximas 24 horas)

TLE

ActualizadoSource: Space-Track

Época: Sep 14, 2026, 07:37 UTC

1 04354U 70021B   26257.31747144  .00004576  00000-0  93159-3 0  9991
2 04354  25.2294 252.9909 6294879 225.2441  61.9720  3.61000459381772

Sigue DELTA 1 R/B en tiempo real con AllMySat

Download on the App Store